GW5150 Weather Reports


time (UTC)temp
C
wind
direction
speed
KPH
gust
KPH
rain 1hr
cm
rain 24hr
cm
rain mn
cm
humidity
%
barometer
mb
20260506212503 27 139 8.0 22.5 0.00 0.00 0.00 87 1009.7
20260506212003 27 145 8.0 22.5 0.00 0.00 0.00 86 1009.6
20260506211509 27 138 9.7 25.7 0.00 0.00 0.00 86 1009.6
20260506211004 27 139 12.9 25.7 0.00 0.00 0.00 85 1009.8
20260506210503 27 153 11.3 20.9 0.00 0.00 0.00 86 1009.7
20260506210008 27 169 4.8 20.9 0.00 0.00 0.00 87 1009.7
20260506205503 27 104 9.7 20.9 0.00 0.00 0.00 87 1009.8
20260506205006 27 151 6.4 19.3 0.00 0.00 0.00 88 1009.8
20260506204514 27 135 6.4 24.1 0.00 0.00 0.00 88 1009.7
20260506204004 27 110 9.7 24.1 0.00 0.00 0.00 88 1009.7
20260506203508 27 166 9.7 22.5 0.00 0.00 0.00 87 1009.8
20260506203017 27 138 9.7 22.5 0.00 0.00 0.00 87 1009.9
20260506202507 27 107 8.0 16.1 0.00 0.00 0.00 86 1010.0
20260506202007 27 148 8.0 17.7 0.00 0.00 0.00 86 1010.1
20260506201519 27 162 6.4 17.7 0.00 0.00 0.00 86 1010.2
20260506201001 27 136 8.0 19.3 0.00 0.00 0.00 87 1010.2
20260506200501 27 117 8.0 19.3 0.00 0.00 0.00 87 1010.2
20260506200007 27 177 9.7 19.3 0.00 0.00 0.00 87 1010.3
20260506195502 27 158 3.2 16.1 0.00 0.00 0.00 87 1010.4
20260506195004 27 158 6.4 17.7 0.00 0.00 0.00 87 1010.5
20260506194510 27 157 8.0 17.7 0.00 0.00 0.00 87 1010.5
20260506194008 27 150 8.0 17.7 0.00 0.00 0.00 87 1010.6
20260506193506 27 128 9.7 19.3 0.00 0.00 0.00 87 1010.7
20260506193012 27 155 11.3 19.3 0.00 0.00 0.00 86 1010.7
20260506192507 27 109 6.4 17.7 0.00 0.00 0.00 87 1010.8
20260506192008 27 130 8.0 17.7 0.00 0.00 0.00 86 1010.7
20260506191516 27 144 8.0 19.3 0.00 0.00 0.00 87 1010.9
20260506191007 27 131 9.7 20.9 0.00 0.00 0.00 87 1011.0
20260506190510 27 167 9.7 25.7 0.00 0.00 0.00 87 1011.0
20260506190023 27 153 11.3 25.7 0.00 0.00 0.00 87 1011.0
20260506185504 27 124 9.7 22.5 0.00 0.00 0.00 87 1010.9
20260506185002 27 121 9.7 22.5 0.00 0.00 0.00 88 1011.0
20260506184503 27 152 9.7 22.5 0.00 0.00 0.00 89 1011.1
20260506184002 26 136 9.7 19.3 0.00 0.00 0.00 90 1011.1
20260506183504 26 136 11.3 19.3 0.00 0.00 0.00 90 1011.0
20260506183012 26 140 9.7 17.7 0.00 0.00 0.00 90 1011.0
20260506182503 26 167 6.4 14.5 0.00 0.00 0.00 90 1011.2
20260506182007 26 165 4.8 14.5 0.00 0.00 0.00 90 1011.2
20260506181514 26 148 6.4 16.1 0.00 0.00 0.00 90 1011.2
20260506181008 26 144 8.0 16.1 0.00 0.00 0.00 90 1011.2
20260506180504 26 114 8.0 14.5 0.00 0.00 0.00 90 1011.2
20260506180018 26 123 8.0 14.5 0.00 0.00 0.00 89 1011.3
20260506175508 26 115 8.0 16.1 0.00 0.00 0.00 89 1011.4
20260506175009 26 119 4.8 17.7 0.00 0.00 0.00 89 1011.3
20260506174521 26 114 8.0 17.7 0.00 0.00 0.00 89 1011.4
20260506174007 26 113 6.4 16.1 0.00 0.00 0.00 88 1011.5
20260506173504 26 138 8.0 19.3 0.00 0.00 0.00 88 1011.7
20260506173008 27 161 6.4 19.3 0.00 0.00 0.00 88 1011.6
20260506172503 27 123 9.7 19.3 0.00 0.00 0.00 89 1011.6
20260506172003 27 110 9.7 17.7 0.00 0.00 0.00 89 1011.5
20260506171518 27 106 3.2 16.1 0.00 0.00 0.00 89 1011.4
20260506171006 26 92 8.0 16.1 0.00 0.00 0.00 89 1011.8
20260506170502 26 104 4.8 16.1 0.00 0.00 0.00 90 1011.6
20260506170017 26 134 6.4 16.1 0.00 0.00 0.00 89 1011.6
20260506165504 26 146 4.8 16.1 0.00 0.00 0.00 90 1011.6
20260506165006 26 98 6.4 14.5 0.00 0.00 0.00 90 1011.4
20260506164522 26 148 6.4 14.5 0.00 0.00 0.00 90 1011.5
20260506164009 26 134 4.8 17.7 0.00 0.00 0.00 91 1011.4
20260506163509 26 164 8.0 17.7 0.00 0.00 0.00 90 1011.5
20260506163024 26 125 4.8 17.7 0.00 0.00 0.00 91 1011.6
20260506162508 26 121 8.0 17.7 0.00 0.00 0.00 91 1011.6
20260506162005 26 138 8.0 16.1 0.00 0.00 0.00 91 1011.7
20260506161510 26 168 3.2 11.3 0.00 0.00 0.00 91 1011.6
20260506161003 26 194 1.6 14.5 0.00 0.00 0.00 91 1011.4
20260506160505 26 134 4.8 17.7 0.00 0.00 0.00 90 1011.3
20260506160019 26 157 8.0 17.7 0.00 0.00 0.00 90 1011.2
20260506155506 26 119 8.0 14.5 0.00 0.00 0.00 90 1011.2
20260506155007 26 135 8.0 14.5 0.00 0.00 0.00 91 1011.1
20260506154523 26 119 4.8 14.5 0.00 0.00 0.00 91 1011.1
20260506154010 26 126 4.8 16.1 0.00 0.00 0.00 91 1011.0
20260506153509 26 148 4.8 16.1 0.00 0.00 0.00 91 1011.0
20260506153022 26 128 6.4 17.7 0.00 0.00 0.00 91 1010.8
20260506152511 26 95 8.0 17.7 0.00 0.00 0.00 91 1010.8
20260506152012 26 159 6.4 17.7 0.00 0.00 0.00 92 1010.8
20260506151526 26 133 8.0 17.7 0.00 0.00 0.00 92 1010.7
20260506151010 26 132 8.0 17.7 0.00 0.00 0.00 92 1010.5
20260506150503 26 117 8.0 16.1 0.00 0.00 0.00 92 1010.6
20260506150012 26 126 6.4 16.1 0.00 0.00 0.00 92 1010.6
20260506145504 26 123 6.4 14.5 0.00 0.00 0.00 92 1010.7
20260506145005 26 226 6.4 14.5 0.00 0.00 0.00 92 1010.7
20260506144517 26 174 8.0 16.1 0.00 0.00 0.00 93 1010.6
20260506144013 25 163 6.4 16.1 0.00 0.00 0.00 93 1010.5
20260506143507 25 153 6.4 14.5 0.00 0.00 0.00 93 1010.4
20260506143021 25 88 6.4 16.1 0.00 0.00 0.00 93 1010.5
20260506142510 25 150 4.8 17.7 0.00 0.00 0.00 93 1010.6
20260506142013 25 125 8.0 17.7 0.00 0.00 0.00 93 1010.5
20260506141524 25 155 9.7 17.7 0.00 0.00 0.00 93 1010.5
20260506141009 25 127 8.0 16.1 0.00 0.00 0.00 93 1010.5
20260506140507 25 179 4.8 14.5 0.00 0.00 0.00 94 1010.6
20260506140030 25 143 4.8 14.5 0.00 0.00 0.00 94 1010.6
20260506135508 25 98 4.8 14.5 0.00 0.00 0.00 94 1010.5
20260506135010 25 114 3.2 14.5 0.00 0.00 0.00 94 1010.6
20260506134515 25 121 4.8 14.5 0.00 0.00 0.00 94 1010.7
20260506134007 25 124 6.4 14.5 0.00 0.00 0.00 94 1010.6
20260506133509 25 152 3.2 12.9 0.00 0.00 0.00 94 1010.6
20260506133019 25 153 4.8 12.9 0.00 0.00 0.00 94 1010.7
20260506132513 25 129 3.2 11.3 0.00 0.00 0.00 94 1010.6
20260506132003 25 113 4.8 14.5 0.00 0.00 0.00 94 1010.7
20260506131509 25 140 6.4 14.5 0.00 0.00 0.00 94 1010.6
20260506131002 25 186 3.2 11.3 0.00 0.00 0.00 94 1010.6
20260506130503 25 157 4.8 14.5 0.00 0.00 0.00 94 1010.6
20260506130007 25 148 4.8 14.5 0.00 0.00 0.00 94 1010.6
20260506125502 25 144 4.8 11.3 0.00 0.00 0.00 94 1010.6
20260506125003 25 138 3.2 14.5 0.00 0.00 0.00 94 1010.5
20260506124508 25 149 3.2 14.5 0.00 0.00 0.00 94 1010.5
20260506124004 25 105 3.2 11.3 0.00 0.00 0.00 94 1010.4
20260506123505 25 106 3.2 11.3 0.00 0.00 0.00 94 1010.6
20260506123014 25 148 4.8 11.3 0.00 0.00 0.00 94 1010.5
20260506122504 25 126 4.8 11.3 0.00 0.00 0.00 94 1010.4
20260506122004 25 120 3.2 14.5 0.00 0.00 0.00 94 1010.3
20260506121505 25 155 4.8 14.5 0.00 0.00 0.00 94 1010.2
20260506121006 25 115 3.2 16.1 0.00 0.00 0.00 94 1010.2
20260506120504 25 126 6.4 16.1 0.00 0.00 0.00 94 1010.0
20260506120008 25 150 3.2 16.1 0.00 0.00 0.00 94 1009.9
20260506115503 25 144 6.4 16.1 0.00 0.00 0.00 94 1010.0
20260506115003 25 142 3.2 14.5 0.00 0.00 0.00 94 1009.9
20260506114506 25 137 1.6 11.3 0.00 0.00 0.00 94 1009.8
20260506114003 25 155 3.2 11.3 0.00 0.00 0.00 94 1009.9
20260506113504 25 166 4.8 11.3 0.00 0.00 0.00 94 1009.9
20260506113015 25 128 3.2 11.3 0.00 0.00 0.00 94 1009.9
20260506112505 25 140 3.2 12.9 0.00 0.00 0.00 94 1009.9
20260506112007 25 153 4.8 12.9 0.00 0.00 0.00 94 1009.9
20260506111517 25 148 3.2 8.0 0.00 0.00 0.00 94 1009.8
20260506111007 25 147 1.6 11.3 0.00 0.00 0.00 94 1009.8
20260506110508 25 141 4.8 11.3 0.00 0.00 0.00 94 1009.6
20260506110024 25 142 1.6 12.9 0.00 0.00 0.00 94 1009.7
20260506105504 25 134 4.8 12.9 0.00 0.00 0.00 94 1009.8
20260506105004 25 150 3.2 9.7 0.00 0.00 0.00 94 1009.7
20260506104503 25 128 3.2 11.3 0.00 0.00 0.00 94 1009.6
20260506104003 25 150 4.8 11.3 0.00 0.00 0.00 94 1009.5
20260506103502 25 139 1.6 9.7 0.00 0.00 0.00 93 1009.5
20260506103011 25 176 3.2 14.5 0.00 0.00 0.00 93 1009.5
20260506102504 25 129 4.8 14.5 0.00 0.00 0.00 93 1009.5
20260506102005 25 144 4.8 14.5 0.00 0.00 0.00 93 1009.4
20260506101515 25 165 4.8 16.1 0.00 0.00 0.00 93 1009.4
20260506101004 25 148 8.0 16.1 0.00 0.00 0.00 93 1009.4
20260506100508 25 139 4.8 14.5 0.00 0.00 0.00 93 1009.5
20260506100020 25 118 4.8 14.5 0.00 0.00 0.00 93 1009.4
20260506095508 25 138 6.4 14.5 0.00 0.00 0.00 93 1009.3
20260506095008 25 152 4.8 12.9 0.00 0.00 0.00 93 1009.4
20260506094531 25 110 4.8 11.3 0.00 0.00 0.00 93 1009.4
20260506094005 25 111 1.6 12.9 0.00 0.00 0.00 93 1009.4
20260506093503 25 123 3.2 12.9 0.00 0.00 0.00 93 1009.3
20260506093008 25 133 4.8 12.9 0.00 0.00 0.00 93 1009.3
20260506092507 25 103 3.2 12.9 0.00 0.00 0.00 93 1009.3
20260506092003 25 138 4.8 11.3 0.00 0.00 0.00 93 1009.4
20260506091512 25 133 3.2 12.9 0.00 0.00 0.00 93 1009.5
20260506091005 25 128 3.2 14.5 0.00 0.00 0.00 93 1009.6
20260506090507 25 152 8.0 16.1 0.00 0.00 0.00 93 1009.6
20260506090017 25 113 6.4 16.1 0.00 0.00 0.00 93 1009.6
20260506085508 25 156 4.8 11.3 0.00 0.00 0.00 92 1009.7
20260506085004 25 150 3.2 12.9 0.00 0.00 0.00 92 1009.7
20260506084523 25 206 4.8 12.9 0.00 0.00 0.00 92 1009.7
20260506084008 25 182 3.2 11.3 0.00 0.00 0.00 92 1009.8
20260506083508 25 171 4.8 11.3 0.00 0.00 0.00 92 1009.9
20260506083025 25 184 4.8 11.3 0.00 0.00 0.00 92 1009.9
20260506082503 25 213 3.2 12.9 0.00 0.00 0.00 92 1009.9
20260506082003 25 180 3.2 12.9 0.00 0.00 0.00 92 1009.8
20260506081508 25 166 4.8 11.3 0.00 0.00 0.00 92 1009.8
20260506081004 25 198 1.6 9.7 0.00 0.00 0.00 92 1009.9
20260506080504 25 145 1.6 16.1 0.00 0.00 0.00 92 1010.0
20260506073511 25 168 4.8 12.9 0.00 0.00 0.00 92 1010.2
20260506073024 25 217 4.8 12.9 0.00 0.00 0.00 92 1010.3
20260506072508 25 188 6.4 14.5 0.00 0.00 0.00 92 1010.4
20260506072011 25 182 6.4 16.1 0.00 0.00 0.00 92 1010.3
20260506071525 25 202 8.0 16.1 0.00 0.00 0.00 92 1010.3
20260506071012 25 173 6.4 16.1 0.00 0.00 0.00 92 1010.2
20260506070505 25 207 6.4 16.1 0.00 0.00 0.00 92 1010.3
20260506062507 25 160 6.4 19.3 0.00 0.00 0.00 92 1010.4
20260506062008 25 178 6.4 17.7 0.00 0.00 0.00 92 1010.4
20260506061524 25 182 4.8 14.5 0.00 0.00 0.00 92 1010.3
20260506061011 25 198 6.4 16.1 0.00 0.00 0.00 92 1010.2
20260506060506 25 185 8.0 16.1 0.00 0.00 0.00 92 1010.2
20260506051010 25 184 9.7 20.9 0.00 0.00 0.00 92 1010.1
20260506050506 25 184 9.7 20.9 0.00 0.00 0.00 92 1010.1
20260506045007 25 191 9.7 25.7 0.00 0.00 0.00 92 1010.3
20260506044526 25 148 11.3 25.7 0.00 0.00 0.00 92 1010.3
20260506044006 25 165 9.7 25.7 0.00 0.00 0.00 91 1010.2
20260506043506 25 186 8.0 19.3 0.00 0.00 0.00 91 1010.1
20260506043014 25 165 6.4 24.1 0.00 0.00 0.00 91 1010.2
20260506042508 25 169 11.3 24.1 0.00 0.00 0.00 91 1010.3
20260506042007 25 206 9.7 24.1 0.00 0.00 0.00 91 1010.2
20260506041511 25 178 12.9 24.1 0.00 0.00 0.00 91 1010.2
20260506041002 25 181 11.3 24.1 0.00 0.00 0.00 91 1010.2
20260506040503 25 160 9.7 24.1 0.00 0.00 0.00 91 1010.3
20260506040008 25 196 8.0 22.5 0.00 0.00 0.00 91 1010.3
20260506035505 25 137 8.0 24.1 0.00 0.00 0.00 91 1010.3
20260506035002 25 162 12.9 24.1 0.00 0.00 0.00 91 1010.3
20260506034510 25 188 12.9 24.1 0.00 0.00 0.00 91 1010.2
20260506034004 25 150 11.3 20.9 0.00 0.00 0.00 91 1010.1
20260506033503 25 184 9.7 25.7 0.00 0.00 0.00 91 1010.2
20260506033012 25 217 11.3 25.7 0.00 0.00 0.00 91 1010.2
20260506032506 25 177 11.3 25.7 0.00 0.00 0.00 91 1010.2
20260506032008 25 185 11.3 25.7 0.00 0.00 0.00 91 1010.2
20260506031518 25 139 11.3 22.5 0.00 0.00 0.00 90 1010.2
20260506031005 25 178 12.9 22.5 0.00 0.00 0.00 90 1010.2
20260506030505 25 139 9.7 22.5 0.00 0.00 0.00 90 1010.1
20260506030009 25 153 11.3 25.7 0.00 0.00 0.00 90 1010.0
20260506025503 25 196 11.3 29.0 0.00 0.00 0.00 90 1010.0
20260506025003 25 172 12.9 29.0 0.00 0.00 0.00 90 1009.9
20260506024517 25 198 14.5 27.4 0.00 0.00 0.00 90 1009.8
20260506024002 25 163 14.5 25.7 0.00 0.00 0.00 90 1009.7
20260506023501 25 176 11.3 22.5 0.00 0.00 0.00 90 1009.6
20260506023012 25 161 9.7 29.0 0.00 0.00 0.00 90 1009.5
20260506022503 25 214 14.5 29.0 0.00 0.00 0.00 90 1009.5
20260506022003 25 159 11.3 25.7 0.00 0.00 0.00 90 1009.5
20260506021514 25 196 11.3 22.5 0.00 0.00 0.00 90 1009.4
20260506021003 25 180 6.4 19.3 0.00 0.00 0.00 90 1009.4
20260506020505 25 188 9.7 19.3 0.00 0.00 0.00 90 1009.3
20260506020020 25 178 9.7 24.1 0.00 0.00 0.00 90 1009.2
20260506015508 25 192 11.3 24.1 0.00 0.00 0.00 90 1009.3
20260506015010 25 172 8.0 19.3 0.00 0.00 0.00 90 1009.2
20260506014504 25 175 8.0 22.5 0.00 0.00 0.00 90 1009.1
20260506014003 25 187 11.3 22.5 0.00 0.00 0.00 90 1009.0
20260506013503 25 153 9.7 25.7 0.00 0.00 0.00 90 1008.9
20260506013009 25 186 11.3 25.7 0.00 0.00 0.00 90 1008.8
20260506012503 25 181 11.3 20.9 0.00 0.00 0.00 90 1008.9
20260506012003 25 170 11.3 20.9 0.00 0.00 0.00 90 1008.9
20260506011511 25 144 9.7 24.1 0.00 0.00 0.00 89 1008.8
20260506011004 25 162 9.7 24.1 0.00 0.00 0.00 89 1008.7
20260506010504 25 190 11.3 22.5 0.00 0.00 0.00 89 1008.6
20260506010017 25 134 9.7 27.4 0.00 0.00 0.00 89 1008.6
20260506005504 26 167 11.3 27.4 0.00 0.00 0.00 89 1008.6
20260506005004 26 171 9.7 20.9 0.00 0.00 0.00 89 1008.5
20260506004522 26 161 9.7 20.9 0.00 0.00 0.00 88 1008.6
20260506004006 26 201 8.0 24.1 0.00 0.00 0.00 88 1008.6
20260506003511 26 200 11.3 24.1 0.00 0.00 0.00 88 1008.6
20260506003022 26 128 9.7 19.3 0.00 0.00 0.00 88 1008.6
20260506002503 26 181 6.4 24.1 0.00 0.00 0.00 87 1008.6
20260506002003 26 158 9.7 24.1 0.00 0.00 0.00 87 1008.7
20260506001510 26 146 8.0 24.1 0.00 0.00 0.00 87 1008.6
20260506001003 26 202 12.9 24.1 0.00 0.00 0.00 87 1008.5
20260506000504 26 191 11.3 20.9 0.00 0.00 0.00 87 1008.5
20260506000014 26 145 12.9 25.7 0.00 0.00 0.00 87 1008.8
20260505235504 26 197 12.9 25.7 0.00 0.00 0.00 86 1008.7
20260505235004 26 188 11.3 22.5 0.00 0.00 0.00 86 1008.7
20260505234527 26 179 11.3 25.7 0.00 0.00 0.00 86 1008.8
20260505234007 26 192 11.3 25.7 0.00 0.00 0.00 86 1008.7
20260505233504 26 190 11.3 29.0 0.00 0.00 0.00 85 1008.7
20260505233021 26 197 12.9 29.0 0.00 0.00 0.00 85 1008.6
20260505232507 27 163 12.9 29.0 0.00 0.00 0.00 84 1008.6
20260505232005 27 188 11.3 24.1 0.00 0.00 0.00 84 1008.7
20260505231525 27 158 9.7 24.1 0.00 0.00 0.00 84 1008.7
20260505231003 27 191 11.3 24.1 0.00 0.00 0.00 84 1008.8
20260505230504 27 165 12.9 24.1 0.00 0.00 0.00 83 1008.7
20260505230025 27 200 9.7 20.9 0.00 0.00 0.00 83 1008.8
20260505225506 27 150 11.3 20.9 0.00 0.00 0.00 82 1008.8
20260505225005 27 191 11.3 27.4 0.00 0.00 0.00 83 1008.9
20260505224514 27 186 11.3 29.0 0.00 0.00 0.00 82 1009.0
20260505224008 27 202 14.5 29.0 0.00 0.00 0.00 82 1008.9
20260505223505 27 213 11.3 27.4 0.00 0.00 0.00 82 1009.0
20260505223020 27 215 11.3 27.4 0.00 0.00 0.00 82 1008.9
20260505222510 27 180 11.3 22.5 0.00 0.00 0.00 82 1009.0
20260505222003 27 119 11.3 22.5 0.00 0.00 0.00 82 1009.0
20260505221504 27 192 9.7 24.1 0.00 0.00 0.00 81 1009.1
20260505221005 28 171 12.9 24.1 0.00 0.00 0.00 81 1009.1
20260505220504 28 198 9.7 20.9 0.00 0.00 0.00 80 1009.2
20260505220007 28 185 11.3 22.5 0.00 0.00 0.00 80 1009.1
20260505215505 28 206 11.3 22.5 0.00 0.00 0.00 80 1009.2
20260505215004 28 206 11.3 24.1 0.00 0.00 0.00 80 1009.2
20260505214514 28 186 11.3 24.1 0.00 0.00 0.00 80 1009.3
20260505214009 28 164 9.7 27.4 0.00 0.00 0.00 80 1009.2
20260505213502 28 177 12.9 27.4 0.00 0.00 0.00 80 1009.3
20260505213002 28 155 9.7 25.7 0.00 0.00 0.00 80 1009.3